Edinburgh Airport, United Kingdom

10:58 PM BST on October 01, 2016 (GMT +0100)
Edinburgh Airport

Weather History for EGPH - September, 2013

Change the Weather History Date:

Tuesday, September 10, 2013

  Actual Average Record
Temperature  
Mean Temperature 55 °F -  
Max Temperature 64 °F 63 °F 69 °F (1999)
Min Temperature 46 °F 47 °F 39 °F (2006)
Degree Days  
Heating Degree Days 10    
Growing Degree Days 5 (Base 50)    
Moisture  
Dew Point 46 °F    
Average Humidity 73    
Maximum Humidity 100    
Minimum Humidity 52    
Precipitation  
Precipitation 0.00 in - - ()
Sea Level Pressure  
Sea Level Pressure 30.18 in    
Wind  
Wind Speed 5 mph ()    
Max Wind Speed 12 mph    
Max Gust Speed -    
Visibility 6.2 miles    
Events      
Averages and records for this station are not official NWS values.
T = Trace of Precipitation, MM = Missing Value Source: Averaged Metar Reports

Daily Weather History Graph

Daily Weather History Graph

Search for Another Location

Airport or City:

Trip Planner

Search our weather history database for the weather conditions in past years. The results will help you decide how hot, cold, wet, or windy it might be!

Date:

Astronomy

Sep. 10, 2013 Rise Set
Actual Time 6:35 AM BST 7:43 PM BST
Civil Twilight 5:57 AM BST 8:21 PM BST
Nautical Twilight 5:10 AM BST 9:08 PM BST
Astronomical Twilight 4:18 AM BST 9:59 PM BST
Moon 12:49 PM BST (9/10) 9:30 PM BST (9/10)
Length of Visible Light 14h 24m
Length of Day
13h 08m
Waxing Crescent, 26% of the Moon is Illuminated
Sep 10
Waxing Crescent
Sep 12
First Quarter
Sep 19
Full
Sep 27
Last Quarter
Oct 5
New

Hourly Weather History & Observations

Time (BST) Temp. Windchill Dew Point Humidity Pressure Visibility Wind Dir Wind Speed Gust Speed Precip Events Conditions
12:20 AM 46.4 °F - 46.4 °F 100% 30.15 in 6.2 mi Variable 2.3 mph - N/A   Unknown
12:50 AM 46.4 °F 45.2 °F 44.6 °F 93% 30.15 in 6.2 mi Variable 3.5 mph - N/A   Unknown
1:20 AM 48.2 °F - 46.4 °F 93% 30.15 in 6.2 mi Variable 3.5 mph - N/A   Unknown
1:50 AM 46.4 °F 45.2 °F 46.4 °F 100% 30.15 in 6.2 mi Variable 3.5 mph - N/A   Unknown
2:20 AM 48.2 °F - 46.4 °F 93% 30.15 in 6.2 mi West 3.5 mph - N/A   Unknown
2:50 AM 46.4 °F 42.9 °F 46.4 °F 100% 30.15 in 6.2 mi WSW 6.9 mph - N/A   Unknown
3:20 AM 48.2 °F - 44.6 °F 87% 30.15 in - WSW 5.8 mph - N/A   Clear
3:50 AM 48.2 °F - 44.6 °F 87% 30.15 in - West 3.5 mph - N/A   Clear
4:20 AM 48.2 °F - 46.4 °F 93% 30.15 in 6.2 mi West 3.5 mph - N/A   Scattered Clouds
4:50 AM 50.0 °F - 44.6 °F 82% 30.15 in - West 4.6 mph - N/A   Clear
5:20 AM 48.2 °F - 44.6 °F 87% 30.15 in 6.2 mi Calm Calm - N/A   Mostly Cloudy
5:50 AM 50.0 °F - 44.6 °F 82% 30.15 in 6.2 mi Variable 2.3 mph - N/A   Overcast
6:20 AM 50.0 °F - 44.6 °F 82% 30.18 in 6.2 mi Variable 3.5 mph - N/A   Mostly Cloudy
6:50 AM 50.0 °F - 44.6 °F 82% 30.18 in 6.2 mi West 4.6 mph - N/A   Mostly Cloudy
7:20 AM 50.0 °F - 44.6 °F 82% 30.18 in 6.2 mi WSW 4.6 mph - N/A   Mostly Cloudy
7:50 AM 51.8 °F - 46.4 °F 82% 30.18 in 6.2 mi SW 5.8 mph - N/A   Mostly Cloudy
8:20 AM 51.8 °F - 46.4 °F 82% 30.18 in 6.2 mi WSW 6.9 mph - N/A   Mostly Cloudy
8:50 AM 51.8 °F - 46.4 °F 82% 30.18 in 6.2 mi WSW 5.8 mph - N/A   Scattered Clouds
9:20 AM 53.6 °F - 46.4 °F 77% 30.18 in 6.2 mi WSW 6.9 mph - N/A   Scattered Clouds
9:50 AM 55.4 °F - 46.4 °F 72% 30.18 in 6.2 mi WNW 6.9 mph - N/A   Scattered Clouds
10:20 AM 55.4 °F - 44.6 °F 67% 30.18 in 6.2 mi NW 8.1 mph - N/A   Mostly Cloudy
10:50 AM 57.2 °F - 44.6 °F 63% 30.18 in 6.2 mi NW 8.1 mph - N/A   Scattered Clouds
11:20 AM 60.8 °F - 46.4 °F 59% 30.18 in 6.2 mi NW 8.1 mph - N/A   Scattered Clouds
11:50 AM 59.0 °F - 46.4 °F 63% 30.18 in 6.2 mi WNW 8.1 mph - N/A   Scattered Clouds
12:20 PM 59.0 °F - 44.6 °F 59% 30.18 in 6.2 mi NW 6.9 mph - N/A   Mostly Cloudy
12:50 PM 59.0 °F - 44.6 °F 59% 30.21 in 6.2 mi NNW 9.2 mph - N/A   Mostly Cloudy
1:20 PM 60.8 °F - 44.6 °F 55% 30.21 in 6.2 mi NNW 9.2 mph - N/A   Mostly Cloudy
1:50 PM 60.8 °F - 46.4 °F 59% 30.18 in 6.2 mi NW 9.2 mph - N/A   Mostly Cloudy
2:20 PM 60.8 °F - 46.4 °F 59% 30.21 in 6.2 mi NNW 6.9 mph - N/A   Mostly Cloudy
2:50 PM 60.8 °F - 46.4 °F 59% 30.21 in 6.2 mi NNW 8.1 mph - N/A   Mostly Cloudy
3:20 PM 62.6 °F - 46.4 °F 55% 30.18 in 6.2 mi North 5.8 mph - N/A   Mostly Cloudy
3:50 PM 62.6 °F - 46.4 °F 55% 30.18 in 6.2 mi NNW 8.1 mph - N/A   Mostly Cloudy
4:20 PM 64.4 °F - 46.4 °F 52% 30.18 in 6.2 mi North 8.1 mph - N/A   Scattered Clouds
4:50 PM 64.4 °F - 46.4 °F 52% 30.18 in 6.2 mi North 9.2 mph - N/A   Partly Cloudy
5:20 PM 64.4 °F - 46.4 °F 52% 30.18 in 6.2 mi NNW 11.5 mph - N/A   Scattered Clouds
5:50 PM 64.4 °F - 48.2 °F 56% 30.18 in 6.2 mi North 6.9 mph - N/A   Scattered Clouds
6:20 PM 62.6 °F - 48.2 °F 59% 30.18 in 6.2 mi North 5.8 mph - N/A   Scattered Clouds
6:50 PM 60.8 °F - 46.4 °F 59% 30.21 in 6.2 mi NNW 4.6 mph - N/A   Scattered Clouds
7:20 PM 60.8 °F - 48.2 °F 63% 30.21 in 6.2 mi NNW 4.6 mph - N/A   Scattered Clouds
7:50 PM 59.0 °F - 46.4 °F 63% 30.21 in 6.2 mi NW 4.6 mph - N/A   Mostly Cloudy
8:20 PM 59.0 °F - 48.2 °F 67% 30.21 in 6.2 mi North 5.8 mph - N/A   Scattered Clouds
8:50 PM 57.2 °F - 46.4 °F 67% 30.21 in 6.2 mi Variable 2.3 mph - N/A   Scattered Clouds
9:20 PM 57.2 °F - 48.2 °F 72% 30.21 in 6.2 mi Calm Calm - N/A   Mostly Cloudy
9:50 PM 55.4 °F - 48.2 °F 77% 30.21 in 6.2 mi NW 2.3 mph - N/A   Mostly Cloudy
10:20 PM 55.4 °F - 48.2 °F 77% 30.24 in 6.2 mi Variable 3.5 mph - N/A   Mostly Cloudy
10:50 PM 53.6 °F - 48.2 °F 82% 30.24 in 6.2 mi WSW 4.6 mph - N/A   Overcast
11:20 PM 53.6 °F - 48.2 °F 82% 30.24 in 6.2 mi WSW 8.1 mph - N/A   Overcast
11:50 PM 53.6 °F - 48.2 °F 82% 30.24 in 6.2 mi WSW 8.1 mph - N/A   Overcast